FW0841 Weather Reports


time (UTC)temp
C
wind
direction
speed
KPH
gust
KPH
rain 1hr
cm
rain 24hr
cm
rain mn
cm
humidity
%
barometer
mb
20260507115018 21 101 0.0 4.8 0.00 0.03 0.00 93 1013.8
20260507114547 21 121 0.0 6.4 0.00 0.03 0.00 93 1013.8
20260507114018 21 94 1.6 6.4 0.00 0.03 0.00 93 1013.9
20260507113518 21 90 1.6 6.4 0.00 0.03 0.00 93 1014.0
20260507113045 21 116 1.6 6.4 0.00 0.03 0.00 93 1014.0
20260507112514 21 92 1.6 4.8 0.00 0.03 0.00 93 1014.0
20260507112013 21 106 1.6 11.3 0.00 0.03 0.00 93 1014.0
20260507111541 21 84 3.2 11.3 0.00 0.03 0.00 93 1014.1
20260507111017 21 71 1.6 6.4 0.00 0.03 0.00 93 1014.1
20260507110516 21 101 1.6 4.8 0.00 0.03 0.00 94 1014.1
20260507110041 21 110 0.0 4.8 0.00 0.03 0.00 94 1014.1
20260507105515 21 99 1.6 4.8 0.00 0.03 0.00 94 1014.1
20260507105013 21 106 1.6 4.8 0.00 0.03 0.00 94 1014.3
20260507104546 21 109 1.6 4.8 0.00 0.03 0.00 95 1014.3
20260507104015 21 94 0.0 4.8 0.00 0.03 0.00 95 1014.4
20260507103514 21 101 0.0 3.2 0.00 0.03 0.00 95 1014.4
20260507103045 21 97 0.0 3.2 0.00 0.03 0.00 94 1014.5
20260507102516 21 95 0.0 3.2 0.00 0.03 0.00 95 1014.6
20260507102018 21 94 0.0 3.2 0.00 0.03 0.00 95 1014.6
20260507101535 22 92 0.0 3.2 0.00 0.03 0.00 95 1014.7
20260507101016 22 94 0.0 3.2 0.00 0.03 0.00 95 1014.8
20260507100515 22 99 0.0 3.2 0.00 0.03 0.00 95 1014.9
20260507100048 22 98 0.0 3.2 0.00 0.03 0.00 95 1015.0
20260507095515 22 98 0.0 3.2 0.00 0.03 0.03 95 1014.9
20260507095014 22 98 0.0 1.6 0.00 0.03 0.03 95 1014.8
20260507094542 22 99 0.0 1.6 0.00 0.03 0.03 95 1014.9
20260507094016 22 99 0.0 0.0 0.00 0.03 0.03 95 1014.9
20260507093516 22 99 0.0 0.0 0.00 0.03 0.03 94 1014.9
20260507093046 22 99 0.0 0.0 0.00 0.03 0.03 94 1015.0
20260507092520 22 99 0.0 0.0 0.00 0.03 0.03 94 1015.0
20260507092016 22 99 0.0 3.2 0.00 0.03 0.03 93 1015.0
20260507091548 22 99 0.0 3.2 0.00 0.03 0.03 93 1015.0
20260507091016 22 106 0.0 3.2 0.00 0.03 0.03 93 1015.0
20260507090517 22 106 0.0 1.6 0.00 0.03 0.03 94 1015.1
20260507090043 22 106 0.0 4.8 0.00 0.03 0.03 93 1015.1
20260507085516 22 106 0.0 4.8 0.00 0.05 0.03 93 1015.1
20260507085016 22 108 0.0 4.8 0.00 0.05 0.03 93 1015.1
20260507084537 22 97 0.0 4.8 0.00 0.05 0.03 93 1015.1
20260507084020 22 104 0.0 4.8 0.00 0.05 0.03 93 1015.2
20260507083520 22 105 0.0 3.2 0.00 0.05 0.03 93 1015.1
20260507083046 22 94 0.0 4.8 0.00 0.05 0.03 93 1015.1
20260507082518 22 112 0.0 3.2 0.00 0.05 0.03 94 1015.1
20260507082020 22 117 0.0 3.2 0.00 0.05 0.03 94 1015.1
20260507081543 22 111 0.0 3.2 0.00 0.05 0.03 94 1015.0
20260507081020 22 112 0.0 3.2 0.00 0.05 0.03 94 1015.1
20260507080515 22 114 1.6 3.2 0.00 0.05 0.03 94 1015.0
20260507080051 22 101 0.0 3.2 0.00 0.05 0.03 95 1014.9
20260507075517 22 97 0.0 3.2 0.00 0.15 0.03 95 1014.9
20260507075016 22 97 0.0 3.2 0.00 0.15 0.03 95 1015.0
20260507074547 22 112 0.0 3.2 0.00 0.15 0.03 94 1015.0
20260507074018 22 112 0.0 3.2 0.00 0.15 0.03 94 1014.9
20260507073515 22 113 0.0 1.6 0.00 0.15 0.03 94 1014.9
20260507073048 22 113 0.0 0.0 0.00 0.15 0.03 94 1014.8
20260507072521 22 113 0.0 1.6 0.00 0.15 0.03 94 1014.6
20260507072017 22 113 0.0 1.6 0.00 0.15 0.03 94 1014.6
20260507071603 22 113 0.0 1.6 0.00 0.15 0.03 94 1014.6
20260507071016 22 113 0.0 1.6 0.00 0.15 0.03 94 1014.6
20260507070516 22 113 0.0 3.2 0.00 0.15 0.03 94 1014.6
20260507070048 22 113 0.0 3.2 0.00 0.15 0.03 94 1014.6
20260507065516 22 227 0.0 1.6 0.00 0.43 0.03 94 1014.4
20260507065023 22 227 0.0 1.6 0.00 0.43 0.03 94 1014.4
20260507064550 22 227 0.0 0.0 0.00 0.43 0.03 94 1014.3
20260507064020 22 227 0.0 0.0 0.00 0.43 0.03 94 1014.4
20260507063517 22 227 0.0 0.0 0.00 0.43 0.03 94 1014.3
20260507063055 22 227 0.0 1.6 0.00 0.43 0.03 94 1014.3
20260507062521 22 227 0.0 1.6 0.00 0.43 0.03 94 1014.2
20260507062018 22 227 0.0 3.2 0.00 0.43 0.03 94 1014.3
20260507061606 22 227 0.0 3.2 0.00 0.43 0.03 94 1014.2
20260507061018 22 227 0.0 0.0 0.00 0.43 0.03 94 1014.1
20260507060522 22 227 0.0 0.0 0.00 0.43 0.03 93 1014.0
20260507055522 23 227 0.0 1.6 0.00 0.46 0.03 92 1014.0
20260507055021 23 228 0.0 0.0 0.00 0.46 0.03 92 1014.0
20260507054554 23 228 0.0 0.0 0.00 0.46 0.03 91 1013.8
20260507054019 23 228 0.0 0.0 0.00 0.46 0.03 91 1013.9
20260507053520 23 228 0.0 0.0 0.00 0.46 0.03 90 1013.9
20260507053127 23 228 0.0 1.6 0.00 0.46 0.03 90 1013.9
20260507052518 23 228 0.0 3.2 0.00 0.46 0.03 90 1013.8
20260507052019 23 228 0.0 3.2 0.00 0.46 0.03 90 1013.7
20260507051605 23 228 0.0 3.2 0.00 0.46 0.03 89 1013.6
20260507051031 23 228 0.0 4.8 0.00 0.46 0.03 90 1013.6
20260507050519 23 228 0.0 4.8 0.00 0.46 0.03 90 1013.5
20260507050115 23 228 1.6 4.8 0.00 0.46 0.03 90 1013.4
20260507045519 23 227 1.6 4.8 0.00 0.46 0.03 90 1013.4
20260507045019 23 227 1.6 6.4 0.00 0.46 0.03 89 1013.2
20260507044559 23 225 0.0 6.4 0.00 0.46 0.03 89 1013.2
20260507044019 23 216 1.6 6.4 0.00 0.46 0.03 89 1013.3
20260507043518 24 209 3.2 6.4 0.00 0.46 0.03 89 1013.3
20260507043054 24 221 1.6 6.4 0.00 0.46 0.03 89 1013.2
20260507042521 24 207 1.6 6.4 0.00 0.46 0.03 89 1013.1
20260507042021 24 209 1.6 4.8 0.00 0.46 0.03 89 1013.1
20260507041611 24 209 0.0 4.8 0.00 0.46 0.03 88 1013.0
20260507041018 24 208 0.0 4.8 0.00 0.46 0.03 88 1012.9
20260507040523 24 179 0.0 6.4 0.00 0.46 0.03 89 1012.6
20260507040115 24 223 1.6 6.4 0.00 0.46 0.03 88 1012.5
20260507035518 25 246 0.0 6.4 0.00 0.46 0.03 88 1012.6
20260507035019 25 228 1.6 6.4 0.00 0.46 0.03 87 1012.6
20260507034558 25 255 1.6 4.8 0.00 0.46 0.03 88 1012.6
20260507034019 25 202 0.0 6.4 0.00 0.46 0.03 87 1012.5
20260507033517 25 234 1.6 4.8 0.00 0.46 0.03 87 1012.6
20260507033100 25 229 1.6 6.4 0.00 0.46 0.03 87 1012.5
20260507032518 25 250 1.6 6.4 0.00 0.46 0.03 86 1012.6
20260507032016 25 272 1.6 4.8 0.00 0.46 0.03 86 1012.4
20260507031609 25 278 1.6 9.7 0.00 0.46 0.03 86 1012.6
20260507031019 26 259 3.2 9.7 0.00 0.46 0.03 85 1012.6
20260507030523 26 221 3.2 8.0 0.00 0.46 0.03 85 1012.3
20260507030110 26 236 3.2 9.7 0.00 0.46 0.03 85 1012.3
20260507025518 26 271 3.2 9.7 0.00 0.46 0.03 86 1012.2
20260507025027 26 262 3.2 8.0 0.00 0.46 0.03 85 1012.2
20260507024600 25 279 3.2 9.7 0.00 0.46 0.03 86 1012.3
20260507024015 25 236 3.2 11.3 0.00 0.46 0.03 87 1012.3
20260507023517 25 208 3.2 9.7 0.00 0.46 0.03 86 1012.2
20260507023051 25 296 3.2 9.7 0.00 0.46 0.03 86 1012.2
20260507022514 25 225 3.2 9.7 0.00 0.46 0.03 87 1012.2
20260507022017 25 271 3.2 9.7 0.00 0.46 0.03 86 1012.2
20260507021548 25 284 3.2 6.4 0.00 0.46 0.03 87 1012.1
20260507021019 25 298 1.6 6.4 0.00 0.46 0.03 85 1012.3
20260507020514 25 290 1.6 8.0 0.00 0.46 0.03 85 1012.3
20260507020051 26 335 1.6 8.0 0.00 0.46 0.03 85 1012.2
20260507015515 26 320 4.8 9.7 0.00 0.46 0.03 85 1012.3
20260507015021 25 177 1.6 9.7 0.00 0.46 0.03 85 1012.3
20260507014602 25 319 3.2 6.4 0.00 0.46 0.03 85 1012.3
20260507014016 26 288 3.2 8.0 0.00 0.46 0.03 85 1012.3
20260507013517 26 251 3.2 8.0 0.00 0.46 0.03 85 1012.4
20260507013054 26 271 4.8 11.3 0.00 0.46 0.03 86 1012.4
20260507012517 26 279 3.2 12.9 0.00 0.46 0.03 84 1012.4
20260507012015 26 321 4.8 12.9 0.00 0.46 0.03 85 1012.5
20260507011552 26 284 3.2 11.3 0.00 0.46 0.03 86 1012.3
20260507011016 26 301 3.2 11.3 0.00 0.46 0.03 85 1012.4
20260507010516 25 285 4.8 9.7 0.00 0.46 0.03 85 1012.5
20260507010113 25 273 3.2 9.7 0.00 0.46 0.03 86 1012.4
20260507005516 25 290 4.8 9.7 0.00 0.46 0.03 86 1012.3
20260507005015 25 296 3.2 9.7 0.00 0.46 0.03 86 1012.4
20260507004559 25 311 4.8 9.7 0.00 0.46 0.03 86 1012.5
20260507004016 25 319 3.2 8.0 0.00 0.46 0.03 86 1012.7
20260507003519 25 263 3.2 8.0 0.00 0.46 0.03 87 1012.7
20260507003058 25 309 4.8 8.0 0.00 0.46 0.03 86 1012.8
20260507002516 25 292 1.6 8.0 0.00 0.46 0.03 87 1012.8
20260507002019 25 336 3.2 8.0 0.00 0.46 0.03 87 1012.9
20260507001556 25 325 1.6 8.0 0.00 0.46 0.03 87 1012.9
20260507001016 25 287 3.2 8.0 0.00 0.46 0.03 87 1012.8
20260507000518 25 297 3.2 8.0 0.00 0.46 0.03 87 1012.8
20260507000056 25 336 1.6 8.0 0.00 0.46 0.03 87 1012.9
20260506235518 25 309 3.2 8.0 0.00 0.46 0.03 87 1013.0
20260506235016 25 265 1.6 8.0 0.00 0.46 0.03 87 1013.1
20260506234554 25 263 3.2 6.4 0.00 0.46 0.03 86 1013.3
20260506234019 25 294 3.2 9.7 0.00 0.46 0.03 87 1013.1
20260506233517 25 286 3.2 8.0 0.00 0.46 0.03 85 1013.2
20260506233056 26 300 3.2 8.0 0.00 0.46 0.03 86 1013.4
20260506232519 26 263 1.6 8.0 0.00 0.46 0.03 87 1013.4
20260506232017 25 254 3.2 8.0 0.00 0.46 0.03 87 1013.4
20260506231558 25 300 3.2 8.0 0.00 0.46 0.03 86 1013.4
20260506231017 25 261 3.2 8.0 0.00 0.46 0.03 86 1013.5
20260506230515 25 271 3.2 8.0 0.00 0.46 0.03 87 1013.6
20260506230059 25 306 3.2 8.0 0.00 0.46 0.03 87 1013.3
20260506225520 25 263 3.2 6.4 0.00 0.46 0.03 87 1013.5
20260506225021 25 219 1.6 8.0 0.00 0.46 0.03 87 1013.7
20260506224600 25 277 4.8 8.0 0.00 0.46 0.03 85 1013.7
20260506224017 26 271 3.2 8.0 0.00 0.46 0.03 87 1013.8
20260506223520 25 173 1.6 8.0 0.00 0.46 0.03 87 1013.8
20260506223110 25 266 4.8 9.7 0.00 0.46 0.03 86 1013.8
20260506222516 25 234 1.6 8.0 0.00 0.46 0.03 87 1013.8
20260506222018 25 271 3.2 9.7 0.00 0.46 0.03 88 1013.9
20260506221556 25 278 3.2 11.3 0.00 0.46 0.03 87 1014.0
20260506221017 25 254 3.2 11.3 0.00 0.46 0.03 87 1013.9
20260506220516 25 321 4.8 9.7 0.00 0.46 0.03 87 1013.9
20260506220056 25 311 3.2 6.4 0.00 0.46 0.03 87 1013.8
20260506215517 25 340 1.6 6.4 0.00 0.46 0.03 87 1013.9
20260506215020 25 271 3.2 8.0 0.00 0.46 0.03 87 1014.0
20260506214603 25 302 1.6 8.0 0.00 0.46 0.03 89 1014.1
20260506214011 25 333 4.8 8.0 0.00 0.46 0.03 87 1014.0
20260506213510 25 292 4.8 9.7 0.03 0.46 0.03 88 1014.1
20260506213032 25 337 4.8 9.7 0.03 0.46 0.03 86 1014.0
20260506212512 25 278 4.8 8.0 0.03 0.46 0.03 86 1014.1
20260506212008 25 269 3.2 8.0 0.03 0.46 0.03 88 1014.1
20260506211532 25 300 3.2 8.0 0.03 0.46 0.03 86 1014.3
20260506211010 25 265 3.2 8.0 0.03 0.46 0.03 88 1014.3
20260506210508 25 304 3.2 9.7 0.03 0.46 0.03 88 1014.4
20260506210027 25 298 1.6 8.0 0.03 0.46 0.03 86 1014.4
20260506205510 25 253 3.2 8.0 0.03 0.46 0.03 87 1014.4
20260506205009 25 221 1.6 8.0 0.03 0.46 0.03 86 1014.4
20260506204528 25 261 4.8 8.0 0.03 0.46 0.03 88 1014.3
20260506204012 25 227 3.2 8.0 0.03 0.46 0.03 86 1014.3
20260506203507 25 303 1.6 9.7 0.00 0.43 0.00 87 1014.3
20260506203029 25 286 3.2 9.7 0.00 0.43 0.00 87 1014.3
20260506202511 25 327 3.2 9.7 0.00 0.43 0.00 85 1014.2
20260506202014 25 321 3.2 8.0 0.00 0.43 0.00 84 1014.1
20260506201529 25 304 3.2 8.0 0.00 0.43 0.00 86 1014.2
20260506201010 25 298 3.2 8.0 0.00 0.43 0.00 85 1014.2
20260506200509 25 304 3.2 4.8 0.00 0.43 0.00 88 1014.1
20260506200030 25 282 1.6 6.4 0.00 0.43 0.00 86 1014.1
20260506195511 25 322 3.2 6.4 0.00 0.43 0.00 86 1013.9
20260506195011 25 286 1.6 6.4 0.00 0.43 0.00 86 1014.0
20260506194530 25 267 1.6 6.4 0.00 0.43 0.00 85 1014.0
20260506194011 25 293 1.6 6.4 0.00 0.43 0.00 86 1013.9
20260506193512 25 286 3.2 6.4 0.00 0.43 0.00 86 1013.8
20260506193028 24 257 1.6 4.8 0.00 0.43 0.00 86 1013.8
20260506192510 24 279 1.6 4.8 0.00 0.43 0.00 86 1013.8
20260506192012 24 300 0.0 4.8 0.00 0.43 0.00 87 1013.6
20260506191529 24 300 1.6 4.8 0.00 0.43 0.00 87 1013.7
20260506191010 24 283 0.0 4.8 0.00 0.43 0.00 87 1013.7
20260506190515 24 267 1.6 4.8 0.00 0.43 0.00 89 1014.1
20260506190030 24 302 0.0 4.8 0.00 0.43 0.00 87 1014.0
20260506185508 24 303 0.0 4.8 0.00 0.43 0.00 88 1014.1
20260506185011 23 302 1.6 4.8 0.00 0.43 0.00 88 1014.3
20260506184531 23 271 0.0 4.8 0.00 0.43 0.00 90 1014.4
20260506184017 23 270 1.6 4.8 0.00 0.43 0.00 89 1014.3
20260506183509 23 338 0.0 3.2 0.00 0.43 0.00 89 1014.0
20260506183028 23 338 0.0 3.2 0.00 0.43 0.00 90 1013.8
20260506182512 23 338 0.0 3.2 0.00 0.43 0.00 91 1014.0
20260506182009 23 103 0.0 3.2 0.00 0.43 0.00 90 1013.7
20260506181530 23 103 0.0 3.2 0.00 0.43 0.00 91 1014.1
20260506181009 22 103 0.0 1.6 0.00 0.43 0.00 91 1014.1
20260506180510 22 103 0.0 1.6 0.00 0.43 0.00 93 1014.0
20260506180032 22 103 0.0 1.6 0.00 0.43 0.00 94 1014.1
20260506175513 22 103 0.0 1.6 0.00 0.43 0.00 94 1014.3
20260506175017 22 103 0.0 3.2 0.00 0.43 0.00 94 1014.1
20260506174531 21 103 0.0 3.2 0.00 0.43 0.00 94 1013.9
20260506174011 21 101 0.0 3.2 0.00 0.43 0.00 93 1013.9
20260506173514 21 100 0.0 4.8 0.00 0.43 0.00 93 1013.7
20260506173029 21 88 1.6 4.8 0.00 0.43 0.00 92 1013.5
20260506172509 20 107 0.0 4.8 0.00 0.43 0.00 92 1013.4
20260506172009 20 109 1.6 4.8 0.00 0.43 0.00 93 1013.4
20260506171529 20 102 1.6 4.8 0.00 0.43 0.00 93 1013.3
20260506171009 20 109 1.6 4.8 0.00 0.43 0.00 93 1013.2
20260506170510 20 109 1.6 6.4 0.00 0.43 0.00 93 1013.1
20260506170032 20 96 1.6 6.4 0.00 0.43 0.00 93 1012.9
20260506165514 20 104 1.6 8.0 0.00 0.43 0.00 93 1013.0
20260506165009 20 96 3.2 9.7 0.00 0.43 0.00 92 1013.0
20260506164528 20 98 1.6 9.7 0.00 0.43 0.00 92 1012.9
20260506164009 20 104 3.2 6.4 0.00 0.43 0.00 92 1012.8
20260506163511 20 117 3.2 6.4 0.00 0.43 0.00 92 1012.6
20260506163032 20 80 3.2 4.8 0.00 0.43 0.00 91 1012.5
20260506162512 19 96 1.6 9.7 0.00 0.43 0.00 90 1012.6
20260506162011 19 106 3.2 9.7 0.00 0.43 0.00 89 1012.5
20260506161534 19 96 3.2 6.4 0.00 0.43 0.00 90 1012.4
20260506161012 19 103 3.2 9.7 0.00 0.43 0.00 90 1012.4
20260506160517 19 116 3.2 9.7 0.00 0.43 0.00 90 1012.3
20260506160031 19 100 3.2 11.3 0.00 0.43 0.00 92 1012.3
20260506155513 19 103 4.8 11.3 0.00 0.43 0.00 92 1012.2
20260506155012 19 90 4.8 12.9 0.00 0.43 0.00 94 1012.2
20260506154530 20 79 4.8 12.9 0.00 0.43 0.00 94 1012.1
20260506154012 20 103 4.8 9.7 0.00 0.43 0.00 95 1012.0
20260506153512 20 128 4.8 11.3 0.00 0.43 0.00 95 1012.0
20260506153030 20 85 4.8 11.3 0.00 0.43 0.00 95 1012.0
20260506152509 20 82 4.8 11.3 0.00 0.43 0.00 94 1012.1
20260506152017 20 100 4.8 11.3 0.00 0.43 0.00 95 1012.2
20260506151532 20 123 3.2 9.7 0.00 0.43 0.00 95 1012.1
20260506151015 20 81 3.2 9.7 0.00 0.43 0.00 95 1012.1
20260506150512 20 123 1.6 9.7 0.00 0.43 0.00 95 1012.1
20260506150030 20 107 3.2 9.7 0.00 0.43 0.00 95 1012.1
20260506145510 20 96 1.6 6.4 0.00 0.43 0.00 95 1012.1
20260506145010 20 96 1.6 6.4 0.00 0.43 0.00 95 1012.1
20260506144529 20 82 3.2 6.4 0.00 0.43 0.00 95 1012.2
20260506144015 20 87 1.6 6.4 0.00 0.43 0.00 95 1012.2
20260506143511 20 84 3.2 6.4 0.00 0.43 0.00 95 1012.2
20260506143031 20 101 1.6 4.8 0.00 0.43 0.00 95 1012.1
20260506142510 20 72 1.6 4.8 0.00 0.43 0.00 95 1012.0
20260506142011 20 90 1.6 4.8 0.00 0.43 0.00 95 1012.1
20260506141535 20 108 1.6 4.8 0.00 0.43 0.00 95 1012.1
20260506141014 20 111 1.6 4.8 0.00 0.43 0.00 95 1012.2
20260506140512 20 103 1.6 4.8 0.00 0.43 0.00 94 1012.2
20260506140030 20 112 1.6 4.8 0.00 0.43 0.00 94 1012.2
20260506135512 20 95 1.6 9.7 0.00 0.43 0.00 93 1012.2
20260506135017 20 68 3.2 11.3 0.00 0.43 0.00 93 1012.1
20260506134530 20 91 3.2 11.3 0.00 0.43 0.00 93 1012.0
20260506134014 20 94 3.2 9.7 0.00 0.43 0.00 94 1012.1
20260506133512 20 108 3.2 9.7 0.00 0.43 0.00 94 1012.1
20260506133030 20 105 3.2 9.7 0.00 0.43 0.00 94 1012.0
20260506132511 20 115 3.2 9.7 0.00 0.43 0.00 95 1011.9
20260506132011 20 117 3.2 6.4 0.00 0.43 0.00 95 1012.0
20260506131531 20 109 1.6 4.8 0.00 0.43 0.00 95 1012.2
20260506131011 20 103 0.0 4.8 0.00 0.43 0.00 95 1012.0
20260506130514 20 102 1.6 4.8 0.00 0.43 0.00 95 1012.1
20260506130030 20 108 1.6 4.8 0.00 0.43 0.00 95 1012.0
20260506125512 20 92 0.0 4.8 0.00 0.43 0.00 95 1012.1
20260506125012 20 88 1.6 4.8 0.00 0.43 0.00 95 1012.2
20260506124530 20 84 1.6 6.4 0.00 0.43 0.00 95 1012.3
20260506124013 20 126 1.6 9.7 0.00 0.43 0.00 95 1012.4
20260506123517 20 59 3.2 9.7 0.00 0.43 0.00 95 1012.5
20260506123039 20 99 3.2 8.0 0.00 0.43 0.00 95 1012.5
20260506122513 20 100 1.6 9.7 0.00 0.43 0.00 95 1012.6
20260506122018 20 117 3.2 9.7 0.00 0.43 0.00 95 1012.5
20260506121538 20 91 3.2 9.7 0.00 0.43 0.00 95 1012.6
20260506121010 20 90 3.2 8.0 0.00 0.43 0.00 95 1012.5
20260506120510 20 105 1.6 4.8 0.00 0.43 0.00 95 1012.3
20260506120038 20 94 1.6 6.4 0.00 0.43 0.00 96 1012.4
20260506115516 20 82 1.6 6.4 0.00 0.43 0.00 96 1012.5